Find Firefly 3

NORAD ID: 62710 Int'l Des: 2025-009 Owner: PIXX Country: IN operational
LEOCIRCULARRETROGRADESSO

当前视图

正在加载3D地球...

关于 Firefly 3

正在加载描述...

即将过境

Passes for default location (London). Set your location on the main map for personalized predictions.

高度历史

Loading altitude history...

两行轨道根数

1 62710U 25009DF 26151.15766904 .00001937 00000-0 19325-3 0 9998
2 62710 97.7061 229.6769 0002925 185.8583 174.2603 14.92683976 74790
Epoch: May 31, 2026 • Age: 13 hours

当前状态

高度 597.8 km
速度 7.57 km/s
星下点 55.51°N, 85.81°W
发射日期 Jan 14, 2025
运行时间 1.3 years
类型 other

技术详情

分类 Payload
质量 60.00 kg
干质量 60.00 kg
总质量 60.00 kg
长度 0.50 m
直径 0.30 m
跨度 2.00 m
形状 Box + 2 pan
制造商 PIXX
平台类型 Firefly
阶段状态 In Orbit
所有者/国家 PIXX/IN

Most Searched